User: anonymous   Login
Location: Unspecified
(0.0000°N, 0.0000°E)
Time: 07:53:27
(UTC+00:00)
Language:

METEOR-M - Orbit

View from above orbital plane
View from above orbital plane
View from above satellite
View from above satellite

Ground track
Ground track

The orbit data is extracted from the following two-line orbital elements,

1 35865U 09049A   17114.91678435 +.00000050 +00000-0 +41518-4 0  9994
2 35865 098.4260 138.9756 0001463 330.2237 029.8859 14.22106510394381
Epoch (UTC): 24 April 2017 22:00:10
Eccentricity: 0.0001463
inclination: 98.4260°
perigee height: 817 km
apogee height: 819 km
right ascension of ascending node: 138.9756°
argument of perigee: 330.2237°
revolutions per day: 14.22106510
mean anomaly at epoch: 29.8859°
orbit number at epoch: 39438

The dashed part of the orbit path shows where the satellite is in the earth's shadow,  

DLR